When you browse on this site, cookies collect data to enhance your experience and personalize the content and advertising you see.
Visit our Privacy Policy to learn more. By continuing to use the site, you agree to this use of cookies and data.
  • en France
  • Liste des pays
  • À 7 jours
  • Température de l'eau
  • Carte satellitaire
  • Carte météo
  • Widgets météo
  • user-avatar
    Se connecter

    Météo par heure à Billericay

    Ce jour, 19 Juin, Mercredi

    Heure Température Précipitation Vent Pression Humidité
    00:00 +15°C° 0.4 mm 2 m/s 751 mmHg 94%
    01:00 +15°C° 0.7 mm 2 m/s 751 mmHg 95%
    02:00 +14°C° 0.7 mm 2 m/s 750 mmHg 95%
    03:00 +14°C° 0.7 mm 2 m/s 750 mmHg 96%
    04:00 +15°C° 1.2 mm 2 m/s 749 mmHg 95%
    05:00 +14°C° 1.2 mm 3 m/s 749 mmHg 95%
    06:00 +14°C° 1.2 mm 3 m/s 749 mmHg 95%
    07:00 +16°C° 0.2 mm 3 m/s 749 mmHg 93%
    08:00 +17°C° 0.2 mm 3 m/s 749 mmHg 92%
    09:00 +17°C° 0.2 mm 3 m/s 749 mmHg 90%
    10:00 +18°C° 0.1 mm 3 m/s 749 mmHg 89%
    11:00 +18°C° 0.1 mm 3 m/s 750 mmHg 88%
    12:00 +18°C° 0.1 mm 3 m/s 750 mmHg 88%
    13:00 +19°C° 0.2 mm 3 m/s 750 mmHg 82%
    14:00 +20°C° 0.2 mm 3 m/s 750 mmHg 76%
    15:00 +21°C° 0.2 mm 3 m/s 750 mmHg 70%
    16:00 +20°C° 0.4 mm 3 m/s 750 mmHg 73%
    17:00 +19°C° 0.4 mm 2 m/s 750 mmHg 77%
    18:00 +19°C° 0.4 mm 2 m/s 750 mmHg 80%
    19:00 +18°C° 0.1 mm 2 m/s 751 mmHg 82%
    20:00 +17°C° 0.1 mm 2 m/s 751 mmHg 84%
    21:00 +16°C° 0.1 mm 2 m/s 751 mmHg 86%
    22:00 +15°C° 0 mm 2 m/s 752 mmHg 86%
    23:00 +13°C° 0 mm 3 m/s 752 mmHg 86%

    Demain, 20 Juin, Jeudi

    Heure Température Précipitation Vent Pression Humidité
    00:00 +13°C° 0 mm 3 m/s 752 mmHg 87%
    01:00 +12°C° 0 mm 3 m/s 752 mmHg 85%
    02:00 +11°C° 0 mm 3 m/s 752 mmHg 83%
    03:00 +11°C° 0 mm 3 m/s 752 mmHg 81%
    04:00 +11°C° 0 mm 3 m/s 752 mmHg 81%
    05:00 +11°C° 0 mm 3 m/s 752 mmHg 80%
    06:00 +12°C° 0 mm 3 m/s 753 mmHg 80%
    07:00 +13°C° 0 mm 3 m/s 753 mmHg 76%
    08:00 +15°C° 0 mm 4 m/s 753 mmHg 71%
    09:00 +17°C° 0 mm 4 m/s 754 mmHg 67%
    10:00 +18°C° 0.1 mm 4 m/s 754 mmHg 64%
    11:00 +19°C° 0.1 mm 4 m/s 754 mmHg 62%
    12:00 +19°C° 0.1 mm 4 m/s 754 mmHg 59%
    13:00 +19°C° 0.2 mm 4 m/s 754 mmHg 61%
    14:00 +19°C° 0.2 mm 4 m/s 754 mmHg 62%
    15:00 +19°C° 0.2 mm 4 m/s 754 mmHg 64%
    16:00 +18°C° 0.2 mm 4 m/s 755 mmHg 67%
    17:00 +17°C° 0.2 mm 4 m/s 755 mmHg 70%
    18:00 +17°C° 0.2 mm 4 m/s 755 mmHg 72%
    19:00 +16°C° 0 mm 3 m/s 755 mmHg 75%
    20:00 +14°C° 0 mm 3 m/s 755 mmHg 78%
    21:00 +12°C° 0 mm 3 m/s 756 mmHg 80%
    22:00 +12°C° 0 mm 3 m/s 756 mmHg 81%
    23:00 +11°C° 0 mm 3 m/s 756 mmHg 82%

    Après-demain, 21 Juin, Vendredi

    Heure Température Précipitation Vent Pression Humidité
    00:00 +11°C° 0 mm 3 m/s 756 mmHg 83%
    01:00 +10°C° 0 mm 3 m/s 756 mmHg 83%
    02:00 +10°C° 0 mm 3 m/s 756 mmHg 84%
    03:00 +9°C° 0 mm 3 m/s 757 mmHg 84%
    04:00 +10°C° 0 mm 3 m/s 757 mmHg 82%
    05:00 +10°C° 0 mm 3 m/s 757 mmHg 80%
    06:00 +11°C° 0 mm 3 m/s 757 mmHg 79%
    07:00 +12°C° 0 mm 4 m/s 758 mmHg 73%
    08:00 +14°C° 0 mm 4 m/s 758 mmHg 68%
    09:00 +15°C° 0 mm 4 m/s 758 mmHg 63%
    10:00 +17°C° 0 mm 4 m/s 758 mmHg 61%
    11:00 +18°C° 0 mm 3 m/s 758 mmHg 59%
    12:00 +18°C° 0 mm 3 m/s 759 mmHg 57%
    13:00 +18°C° 0 mm 3 m/s 759 mmHg 57%
    14:00 +18°C° 0 mm 3 m/s 759 mmHg 57%
    15:00 +18°C° 0 mm 3 m/s 759 mmHg 58%
    16:00 +18°C° 0 mm 3 m/s 759 mmHg 60%
    17:00 +18°C° 0 mm 2 m/s 759 mmHg 62%
    18:00 +18°C° 0 mm 2 m/s 759 mmHg 64%
    19:00 +16°C° 0 mm 2 m/s 759 mmHg 68%
    20:00 +15°C° 0 mm 1 m/s 760 mmHg 72%
    21:00 +13°C° 0 mm 1 m/s 760 mmHg 76%
    22:00 +13°C° 0 mm 1 m/s 760 mmHg 77%
    23:00 +12°C° 0 mm 0 m/s 760 mmHg 78%

    22 Juin, Samedi

    Heure Température Précipitation Vent Pression Humidité
    00:00 +11°C° 0 mm 0 m/s 760 mmHg 79%
    01:00 +11°C° 0 mm 0 m/s 760 mmHg 80%
    02:00 +10°C° 0 mm 0 m/s 760 mmHg 81%
    03:00 +10°C° 0 mm 0 m/s 760 mmHg 82%
    04:00 +11°C° 0 mm 0 m/s 760 mmHg 80%
    05:00 +12°C° 0 mm 0 m/s 760 mmHg 79%
    06:00 +13°C° 0 mm 0 m/s 761 mmHg 77%
    07:00 +14°C° 0 mm 0 m/s 761 mmHg 71%
    08:00 +18°C° 0 mm 1 m/s 761 mmHg 65%
    09:00 +19°C° 0 mm 1 m/s 761 mmHg 59%
    10:00 +19°C° 0 mm 2 m/s 761 mmHg 58%
    11:00 +19°C° 0 mm 2 m/s 761 mmHg 58%
    12:00 +19°C° 0 mm 2 m/s 761 mmHg 57%
    13:00 +19°C° 0 mm 3 m/s 761 mmHg 58%
    14:00 +19°C° 0 mm 3 m/s 760 mmHg 60%
    15:00 +19°C° 0 mm 3 m/s 760 mmHg 61%
    16:00 +19°C° 0.1 mm 3 m/s 760 mmHg 65%
    17:00 +18°C° 0.1 mm 3 m/s 760 mmHg 69%
    18:00 +17°C° 0.1 mm 3 m/s 760 mmHg 73%
    19:00 +16°C° 0 mm 3 m/s 760 mmHg 76%
    20:00 +14°C° 0 mm 3 m/s 760 mmHg 78%
    21:00 +13°C° 0 mm 3 m/s 760 mmHg 81%
    22:00 +14°C° 0 mm 2 m/s 760 mmHg 83%
    23:00 +13°C° 0 mm 2 m/s 760 mmHg 84%

    23 Juin, Dimanche

    Heure Température Précipitation Vent Pression Humidité
    00:00 +13°C° 0 mm 2 m/s 760 mmHg 86%
    01:00 +12°C° 0 mm 2 m/s 760 mmHg 86%
    02:00 +12°C° 0 mm 2 m/s 760 mmHg 86%
    03:00 +12°C° 0 mm 2 m/s 760 mmHg 86%
    04:00 +12°C° 0 mm 3 m/s 760 mmHg 85%
    05:00 +12°C° 0 mm 3 m/s 760 mmHg 85%
    06:00 +13°C° 0 mm 3 m/s 760 mmHg 84%
    07:00 +14°C° 0 mm 4 m/s 760 mmHg 80%
    08:00 +17°C° 0 mm 4 m/s 760 mmHg 76%
    09:00 +17°C° 0 mm 5 m/s 760 mmHg 73%
    10:00 +17°C° 0 mm 5 m/s 760 mmHg 71%
    11:00 +19°C° 0 mm 6 m/s 760 mmHg 70%
    12:00 +19°C° 0 mm 6 m/s 760 mmHg 69%
    13:00 +19°C° 0 mm 6 m/s 760 mmHg 70%
    14:00 +19°C° 0 mm 6 m/s 760 mmHg 71%
    15:00 +19°C° 0 mm 6 m/s 759 mmHg 72%
    16:00 +17°C° 0 mm 6 m/s 759 mmHg 73%
    17:00 +17°C° 0 mm 6 m/s 759 mmHg 74%
    18:00 +16°C° 0 mm 6 m/s 759 mmHg 75%
    19:00 +16°C° 0 mm 6 m/s 759 mmHg 76%
    20:00 +15°C° 0 mm 6 m/s 759 mmHg 78%
    21:00 +15°C° 0 mm 6 m/s 759 mmHg 80%
    22:00 +15°C° 0 mm 6 m/s 759 mmHg 78%
    23:00 +16°C° 0 mm 6 m/s 759 mmHg 77%

    24 Juin, Lundi

    Heure Température Précipitation Vent Pression Humidité
    00:00 +16°C° 0 mm 6 m/s 758 mmHg 76%
    01:00 +16°C° 0 mm 6 m/s 758 mmHg 77%
    02:00 +16°C° 0 mm 7 m/s 758 mmHg 78%
    03:00 +16°C° 0 mm 7 m/s 758 mmHg 80%
    04:00 +16°C° 0 mm 7 m/s 757 mmHg 81%
    05:00 +16°C° 0 mm 7 m/s 757 mmHg 83%
    06:00 +16°C° 0 mm 7 m/s 757 mmHg 85%
    07:00 +16°C° 0 mm 7 m/s 757 mmHg 85%
    08:00 +16°C° 0 mm 7 m/s 757 mmHg 85%
    09:00 +16°C° 0 mm 8 m/s 757 mmHg 85%
    10:00 +17°C° 0 mm 8 m/s 757 mmHg 83%
    11:00 +18°C° 0 mm 7 m/s 757 mmHg 80%
    12:00 +20°C° 0 mm 7 m/s 757 mmHg 77%
    13:00 +20°C° 0 mm 7 m/s 757 mmHg 78%
    14:00 +20°C° 0 mm 6 m/s 756 mmHg 78%
    15:00 +20°C° 0 mm 6 m/s 756 mmHg 79%
    16:00 +20°C° 0 mm 6 m/s 756 mmHg 78%
    17:00 +20°C° 0 mm 7 m/s 756 mmHg 78%
    18:00 +20°C° 0 mm 8 m/s 756 mmHg 78%
    19:00 +20°C° 0 mm 7 m/s 756 mmHg 79%
    20:00 +20°C° 0 mm 5 m/s 757 mmHg 80%
    21:00 +20°C° 0 mm 4 m/s 757 mmHg 81%
    22:00 +20°C° 0 mm 4 m/s 757 mmHg 82%
    23:00 +20°C° 0 mm 4 m/s 756 mmHg 84%
    Voir plus